Location: Maiden
(35.5760°N, 81.2120°W)
Time: 03:40:32
(UTC-04:00)

Vanguard 2 - Pass Details

Date: 05 August 2020
Orbit: 553 x 2937 km, 32.9° (Epoch: 20 September)

Event Time Altitude Azimuth Distance (km) Brightness Sun altitude
Rises 00:39:25 0° 255° (WSW) 6,195 12.2 -36.2°
Reaches altitude 10° 00:44:02 10° 254° (WSW) 4,870 11.6 -36.4°
Enters shadow 00:52:29 42° 245° (WSW) 2,411 9.8 -36.8°
Maximum altitude 00:56:48 73° 174° (S) 1,608 - -37.0°
Drops below altitude 10° 01:04:13 10° 91° (E) 2,952 - -37.2°
Sets 01:06:23 0° 89° (E) 3,679 - -37.3°
